User: anonymous   Login
Location: Unspecified
(0.0000°N, 0.0000°E)
Time: 23:00:02
(UTC+00:00)
Language:

NNS O-27 - Orbit

View from above orbital plane
View from above orbital plane
View from above satellite
View from above satellite

Ground track
Ground track

The orbit data is extracted from the following two-line orbital elements,

1 18361U 87080A   17267.26629228 +.00000052 +00000-0 +72114-4 0  9998
2 18361 090.3337 338.7991 0105115 175.9659 184.2361 13.44439676472231
Epoch (UTC): 24 September 2017 06:23:27
Eccentricity: 0.0105115
inclination: 90.3337°
perigee height: 1014 km
apogee height: 1171 km
right ascension of ascending node: 338.7991°
argument of perigee: 175.9659°
revolutions per day: 13.44439676
mean anomaly at epoch: 184.2361°
orbit number at epoch: 47223

The dashed part of the orbit path shows where the satellite is in the earth's shadow,  

DLR